Regional Weather Roundup
Issued by NWS Grand Forks, ND

Home | Current Version | Previous Version | Text Only | Print | Product List | Glossary Off
Versions: 1 2 3 4 5 6 7 8 9 10 11 12 13 14 15 16 17 18 19 20 21 22 23 24 25 26 27 28 29 30 31 32 33 34 35 36 37 38 39 40 41 42 43 44 45 46 47 48 49 50

000
ASUS43 KFGF 191831
RWRFGF
PRAIRIE TO PINES  WEATHER ROUNDUP
NATIONAL WEATHER SERVICE EASTERN NORTH DAKOTA/GRAND FORKS ND
100 PM CDT WED SEP 19 2018

 **SATELLITE DATA USED TO AUGMENT SKY COVER AT AUTOMATED STATIONS**
 *****  WEATHER ACROSS EASTERN NORTH DAKOTA  *****

CITY           SKY/WX    TMP DP  RH WIND       PRES   REMARKS
GRAND FORKS    PTSUNNY   59  46  62 N15G24    30.11F
6HR MIN TEMP:  45; 6HR MAX TEMP:  60; 6HR PCP: TRACE;

GRAND FRKS AFB FAIR      58  45  61 N13       30.13F
GRAND FRKS NWS   N/A     60  48  63 N7        30.08F
DEVILS LAKE    FAIR      54  44  69 N12       30.15F
6HR MIN TEMP:  47; 6HR MAX TEMP:  54;

FARGO          CLOUDY    62  51  67 N13       30.06F
WAHPETON ARPT  CLOUDY    64  48  55 NE9       30.04R
$$

 ***** WEATHER ACROSS CENTRAL AND WESTERN NORTH DAKOTA  *****

CITY           SKY/WX    TMP DP  RH WIND       PRES   REMARKS
BISMARCK       FAIR      62  48  60 NE13G21   30.11F
6HR MIN TEMP:  47; 6HR MAX TEMP:  62;

MINOT          FAIR      57  37  47 N8        30.16F
6HR MIN TEMP:  40; 6HR MAX TEMP:  57;

JAMESTOWN      FAIR      60  49  66 NE10      30.08F
6HR MIN TEMP:  47; 6HR MAX TEMP:  60;

MINOT AFB      FAIR      56  38  51 N12       30.15F
GARRISON         N/A     53  43  68 NE9       30.14F
WILLISTON      LGT RAIN  48  40  73 NE10      30.20F
6HR MIN TEMP:  45; 6HR MAX TEMP:  50; 6HR PCP:  0.02;

DICKINSON      FAIR      55  44  66 NE13      30.11S
6HR MIN TEMP:  44; 6HR MAX TEMP:  55;

HETTINGER      CLOUDY    53  46  77 NE12      30.10R
6HR MIN TEMP:  46; 6HR MAX TEMP:  54;

$$

 *****  OTHER AIRPORT OBSERVATIONS IN OUR AREA  *****

CITY           SKY/WX    TMP DP  RH WIND       PRES   REMARKS
WALHALLA       FAIR      55  55 100 N12       30.17S
GRAFTON AIRPOR FAIR      59  43  55 N14G21    30.14F
VALLEY CITY AR CLOUDY    59  52  77 NE14      30.09F
CANDO          FAIR      57  41  54 NE9       30.17F
CAVALIER APRT  FAIR      57 N/A N/A N8G15     30.15S
GWINNER          N/A     55  52  88 N12       30.04F
ROLLA          CLOUDY    52  37  58 N12       30.17F
 ***** THE ABOVE OBSERVATIONS ARE NON NWS ARE NOT QUALITY
       CONTROLLED AND MAY MIS-REPORT RAIN FOR SNOW...
$$

  *****  WEATHER ACROSS NORTHERN MINNESOTA  *****

CITY           SKY/WX    TMP DP  RH WIND       PRES   REMARKS
FLAG ISLAND    CLOUDY    55  46  71 N9        30.11F
WARROAD        FAIR      57  52  82 E8        30.12F
ROSEAU         FAIR      61  48  63 N6        30.11F
HALLOCK        FAIR      59  39  47 N13G20    30.13S
THF RVR FALLS  FAIR      60  48  64 N9        30.11F
6HR MIN TEMP:  47; 6HR MAX TEMP:  60;

BAUDETTE       PTSUNNY   59  52  77 N8        30.11F
6HR MIN TEMP:  41; 6HR MAX TEMP:  60;

WASKISH        FAIR      63  54  72 CALM      30.08F
CROOKSTON      FAIR      63  46  55 NE13      30.10F
STEPHEN NDAWN    N/A     57  43  58 N10         N/A
GREENBUSH NDAW   N/A     57  45  62 N9          N/A
$$
  *****  WEATHER ACROSS CENTRAL AND WEST MINNESOTA  *****

CITY           SKY/WX    TMP DP  RH WIND       PRES   REMARKS
FOSSTON        FAIR      64  55  72 NE9       30.08F
BEMIDJI        CLOUDY    60  51  71 NE6       30.07F
6HR MIN TEMP:  50; 6HR MAX TEMP:  61;

PARK RAPIDS    CLOUDY    60  50  69 E8        30.06F
6HR MIN TEMP:  53; 6HR MAX TEMP:  60;

ELBOW LAKE     CLOUDY    56  52  88 NE9G16    30.04R
6HR MIN TEMP:  56; 6HR MAX TEMP:  58; 6HR PCP:  0.02;

WADENA         CLOUDY    57  52  82 NE7       30.05F
DETROIT LAKES  PTSUNNY   63  52  67 E10       30.06F
MOORHEAD       FAIR      63  52  67 N10       30.06S
FERGUS FALLS   CLOUDY    61  52  72 E12       30.06R
MORRIS MN      CLOUDY    57  55  94 NE12G18   30.01R
STAPLES        CLOUDY    55  48  76 NE6       30.06S
$$
  *****  WEATHER ELSEWHERE ACROSS MINNESOTA  *****

CITY           SKY/WX    TMP DP  RH WIND       PRES   REMARKS
DULUTH         CLOUDY    58  50  75 E9        30.08F
6HR MIN TEMP:  54; 6HR MAX TEMP:  57;

INTRNTL FALLS  FAIR      62  53  72 NW3       30.10F
6HR MIN TEMP:  42; 6HR MAX TEMP:  62;

ELY            CLOUDY    55  46  71 CALM      30.10F
CLOQUET        CLOUDY    55  48  76 E6        30.08F
WHEATON        RAIN      57  52  82 NE7       30.04S
BRAINERD       CLOUDY    57  49  74 NE10      30.06F
6HR MIN TEMP:  52; 6HR MAX TEMP:  57; 6HR PCP: TRACE;

HIBBING        CLOUDY    57  48  72 N3        30.09F
6HR MIN TEMP:  50; 6HR MAX TEMP:  57;

ALEXANDRIA     CLOUDY    59  49  69 NE13      30.04S
6HR MIN TEMP:  57; 6HR MAX TEMP:  59; 6HR PCP:  0.01;

SAINT CLOUD    CLOUDY    58  54  86 E6        30.02F
6HR MIN TEMP:  53; 6HR MAX TEMP:  58; 6HR PCP:  0.04;

MINNEAPOLIS    CLOUDY    62  61  96 N8        30.01R
6HR MIN TEMP:  59; 6HR MAX TEMP:  63; 6HR PCP:  0.18;

$$

  *****  WEATHER ACROSS SOUTH DAKOTA  *****

CITY           SKY/WX    TMP DP  RH WIND       PRES   REMARKS
SIOUX FALLS    LGT RAIN  69  66  90 E10       29.93F
6HR MIN TEMP:  64; 6HR MAX TEMP:  69; 6HR PCP:  0.21;

BROOKINGS      LGT RAIN  64  63  94 E7        29.97S
WATERTOWN      RAIN      61  60  97 N7        30.02R
6HR MIN TEMP:  57; 6HR MAX TEMP:  62; 6HR PCP:  0.06;

HURON          CLOUDY    64  62  93 E10       29.93F
6HR MIN TEMP:  62; 6HR MAX TEMP:  65; 6HR PCP:  0.23;

SISSETON         N/A     57  55  93 NE10      30.01R
ABERDEEN       CLOUDY    57  56  96 NE12      30.02S
6HR MIN TEMP:  56; 6HR MAX TEMP:  57; 6HR PCP:  0.15;

MITCHELL       LGT RAIN  65  64  97 E9        29.92F
PIERRE         CLOUDY    62  60  93 NE16      29.94F
6HR MIN TEMP:  58; 6HR MAX TEMP:  63;

MOBRIDGE       CLOUDY    59  54  83 NE17      30.02F
RAPID CITY     LGT RAIN  53  51  93 N13       30.03S FOG
6HR MIN TEMP:  52; 6HR MAX TEMP:  54; 6HR PCP:  0.02;

$$

  *****  SOME WEATHER IN NEARBY STATES *****

CITY           SKY/WX    TMP DP  RH WIND       PRES   REMARKS
GLASGOW MT     LGT RAIN  45  42  89 E15       30.16F
6HR MIN TEMP:  45; 6HR MAX TEMP:  47; 6HR PCP:  0.06;

GREAT FALLS MT LGT RAIN  46  45  96 NE6       30.12F
6HR MIN TEMP:  43; 6HR MAX TEMP:  46; 6HR PCP:  0.02;

CHEYENNE WY    FAIR      64  53  67 N13       30.03F
6HR MIN TEMP:  57; 6HR MAX TEMP:  65;

SCOTTSBLUFF NE CLOUDY    66  60  81 NE8       29.97F
6HR MIN TEMP:  60; 6HR MAX TEMP:  67;

OMAHA NE       PTSUNNY   80  70  71 E13       29.89F
6HR MIN TEMP:  68; 6HR MAX TEMP:  80;

DES MOINES IA  PTSUNNY   74  70  87 E10       29.95F
6HR MIN TEMP:  66; 6HR MAX TEMP:  74; 6HR PCP: TRACE;

DAVENPORT IA   TSTM      67  65  93 N12G18    30.08R FOG
6HR MIN TEMP:  63; 6HR MAX TEMP:  72;

CHICAGO IL     PTSUNNY   74  62  66 NE12      30.03F
6HR MIN TEMP:  68; 6HR MAX TEMP:  76;

EAU CLAIRE WI  CLOUDY    64  63  96 SE9       30.01F
6HR MIN TEMP:  59; 6HR MAX TEMP:  63; 6HR PCP:  0.02;

LA CROSSE WI   LGT RAIN  67  65  93 E6        30.02F
6HR MIN TEMP:  65; 6HR MAX TEMP:  67; 6HR PCP:  0.14;

$$

  *****  SOME NATIONAL WEATHER *****

CITY           SKY/WX    TMP DP  RH WIND       PRES   REMARKS
LA GUARDIA NY  PTSUNNY   80  65  59 E8        29.90S
6HR MIN TEMP:  73; 6HR MAX TEMP:  81;

RALEIGH NC     FAIR      87  66  49 VRB3      29.97F
6HR MIN TEMP:  69; 6HR MAX TEMP:  87;

ATLANTA GA     FAIR      90  67  46 CALM      30.03F HX  93
6HR MIN TEMP:  75; 6HR MAX TEMP:  92;

NEW ORLEANS LA FAIR      95  75  52 VRB7      29.96F HX 107
6HR MIN TEMP:  78; 6HR MAX TEMP:  95;

OKLAHOMA CITY  FAIR      88  67  49 S16G23    29.96F HX  91
6HR MIN TEMP:  68; 6HR MAX TEMP:  88;

ALBUQUERQUE NM FAIR      83  55  38 SW10G16   30.02F
6HR MIN TEMP:  69; 6HR MAX TEMP:  83;

SALT LAKE CITY FAIR      75  33  21 N7        29.87F
6HR MIN TEMP:  54; 6HR MAX TEMP:  75;

LOS ANGELES CA FAIR


USA.gov is the U.S. government's official web portal to all federal, state and local government web resources and services.